Location: Vienna
(38.9012°N, 77.2653°W)
Time: 20:59:30
(UTC-05:00)

OTV 5 (USA 277) - Visible Passes

Search period start: 23 January 2018 00:00
Search period end: 02 February 2018 00:00
Orbit: 404 x 417 km, 43.0° (Epoch: 07 September)

Date Brightness Start Highest point End Pass type
(mag) Time Alt. Az. Time Alt. Az. Time Alt. Az.
23 Jan ? 17:50:46 10° SSW 17:53:28 23° SE 17:56:12 10° E visible
23 Jan ? 19:27:12 10° WSW 19:29:15 34° W 19:29:15 34° W visible
24 Jan ? 18:36:08 10° WSW 18:39:30 79° SSE 18:40:43 36° ENE visible
25 Jan ? 19:22:34 10° W 19:24:54 35° WNW 19:24:54 35° WNW visible
26 Jan ? 18:31:23 10° W 18:34:42 57° NNW 18:36:18 27° NE visible
27 Jan ? 19:17:59 10° WNW 19:20:26 33° NW 19:20:26 33° NW visible
28 Jan ? 18:26:48 10° WNW 18:30:01 41° N 18:31:48 22° NE visible
28 Jan ? 20:04:24 10° WNW 20:04:34 11° WNW 20:04:34 11° WNW visible
29 Jan ? 19:13:18 10° WNW 19:15:58 38° NNW 19:15:58 38° NNW visible
30 Jan ? 18:22:11 10° WNW 18:25:23 39° N 18:27:23 19° ENE visible
30 Jan ? 19:59:33 10° WNW 20:00:09 14° WNW 20:00:09 14° WNW visible
31 Jan ? 19:08:29 10° WNW 19:11:38 61° N 19:11:38 61° N visible
01 Feb ? 18:17:25 10° WNW 18:20:43 50° NNE 18:23:11 16° E visible
01 Feb ? 19:54:48 10° WNW 19:55:58 19° W 19:55:58 19° W visible
